Home > Weather > Philadelphia > Past weeks

Flag for USA Past Weather in Philadelphia, Pennsylvania, USA — Yesterday and Last 2 Weeks

Now
85 °F

Scattered clouds.


Feels Like: 83 °F
Forecast: 63 / 85 °F
Wind: 12 mph from Southwest

Location: Philadelphia International Airport

Current Time: Jun 30, 2016 at 5:19:20 PM

Latest Report: Jun 30, 2016 at 4:54 PM


Visibility: 10 mi

Pressure: 30.01 "Hg

Humidity: 34%

Dew Point: 53 °F

Location of PhiladelphiaLocation

Past Weather in Philadelphia — Graph

°F

Philadelphia Temperature Yesterday

Maximum temperature yesterday: 84 °F (at 2:54 PM)
Minimum temperature yesterday: 69 °F (at 5:54 AM)
Average temperature yesterday: 77 °F

High & Low Weather Summary for the Past Weeks

 TemperatureHumidityPressure
High91 °F (Jun 19, 3:54 PM)94% (Jun 16, 10:54 AM)30.33 "Hg (Jun 16, 10:54 AM)
Low59 °F (Jun 18, 5:54 AM)25% (Jun 19, 2:54 PM)29.72 "Hg (Jun 16, 5:54 PM)
Average75 °F62%30.00 "Hg
* Reported Jun 15 3:54 PM — Jun 30 3:54 PM, Philadelphia, Weather by CustomWeather, © 2016

Note: Actual official high and low records may vary slightly from our data, if they occured in-between our weather recording intervals... More about our weather records

Advertising

Philadelphia Weather History for the Previous 24 Hours

Scroll right to see more
 ConditionsComfort  
Time TempWeatherWind HumidityBarometerVisibility
3:54 PM
Thu, Jun 30
85 °FScattered clouds.8 mph34%30.00 "Hg10 mi
2:54 PM85 °FScattered clouds.8 mph32%30.01 "Hg10 mi
1:54 PM83 °FScattered clouds.6 mph37%30.02 "Hg10 mi
12:54 PM81 °FBroken clouds.7 mph41%30.04 "Hg10 mi
11:54 AM81 °FPartly sunny.8 mph39%30.05 "Hg10 mi
10:54 AM81 °FScattered clouds.5 mph42%30.05 "Hg10 mi
9:54 AM78 °FPassing clouds.5 mph45%30.04 "Hg10 mi
8:54 AM76 °FPassing clouds.8 mph50%30.04 "Hg10 mi
7:54 AM72 °FPassing clouds.5 mph61%30.03 "Hg10 mi
6:54 AM69 °FSunny.5 mph66%30.02 "Hg10 mi
5:54 AM67 °FClear.3 mph68%30.02 "Hg10 mi
4:54 AM67 °FClear.7 mph68%30.01 "Hg10 mi
3:54 AM70 °FPassing clouds.7 mph61%30.01 "Hg10 mi
2:54 AM70 °FClear.8 mph61%29.99 "Hg10 mi
1:54 AM71 °FClear.7 mph59%29.98 "Hg10 mi
12:54 AM73 °FClear.8 mph55%29.98 "Hg10 mi
11:54 PM
Wed, Jun 29
74 °FClear.9 mph53%29.98 "Hg10 mi
10:54 PM75 °FClear.9 mph52%29.97 "Hg10 mi
9:54 PM77 °FClear.8 mph48%29.96 "Hg10 mi
8:54 PM79 °FSunny.10 mph44%29.93 "Hg10 mi
7:54 PM81 °FPassing clouds.9 mph37%29.92 "Hg10 mi
6:54 PM82 °FScattered clouds.12 mph37%29.90 "Hg10 mi
5:54 PM83 °FScattered clouds.15 mph38%29.89 "Hg10 mi
Weather by CustomWeather, © 2016

See weather overviewHow to use our weather pages